Location: Castro Valley
(37.6940°N, 122.0850°W)
Time: 06:52:45
(UTC-07:00)

Amateur Radio Satellites - All Passes

Search period start: 01 August 2014 06:22
Search period end: 02 August 2014 06:22
Location: Castro Valley, 37.6940°N, 122.0850°W

Satellite Date Start Highest point End Downlink Frequencies (MHz)
Time Altitude Azimuth
PANSAT 01 Aug 06:24:57 06:27:38 18° 189° (S) 06:30:19 not established
MaSat-1 01 Aug 06:29:26 06:34:43 75° 65° (ENE) 06:39:35 437.345 MHz
JAS-2 01 Aug 06:36:04 06:40:44 26° 94° (E) 06:45:05 435.800 - 435.900 CW/SSB, 435.910 FM
Uosat F 01 Aug 06:46:26 06:49:45 18° 296° (WNW) 06:53:04 435.120 FM
Hamsat 01 Aug 06:48:52 06:53:03 47° 99° (E) 06:57:14 145.90 MHz
KITSAT 1 01 Aug 06:58:42 07:06:28 49° 306° (NW) 07:14:17 435.175 FM
Saudisat 1A 01 Aug 07:17:05 07:21:29 72° 302° (WNW) 07:25:55 436.775 MHz
STRAND 1 01 Aug 07:43:10 07:48:01 42° 261° (W) 07:52:53 ?
SO-67 01 Aug 07:59:15 08:02:35 42° 99° (E) 08:05:53 435.3500 MHz FM
MaSat-1 01 Aug 08:09:24 08:11:12 12° 262° (W) 08:12:57 437.345 MHz
AO-7 01 Aug 08:16:32 08:19:39 13° 312° (NW) 08:22:47 29.400 - 29.500 MHz
JAS-2 01 Aug 08:20:48 08:25:55 34° 293° (WNW) 08:30:39 435.800 - 435.900 CW/SSB, 435.910 FM
Sapphire 01 Aug 08:25:10 08:28:46 18° 47° (NE) 08:32:21 437.095 MHz 1200 baud AX-25 AFSK
Hamsat 01 Aug 08:26:18 08:28:36 14° 294° (WNW) 08:30:55 145.90 MHz
PCSat 01 Aug 08:57:23 09:02:16 33° 54° (NE) 09:07:06 145.825 MHz
HO-68 01 Aug 08:57:46 09:02:30 19° 92° (E) 09:07:13 435.675 MHz FM
KITSAT 1 01 Aug 09:00:37 09:04:08 13° 330° (NNW) 09:07:39 435.175 FM
UKube-1 01 Aug 09:22:02 09:23:51 12° 92° (E) 09:25:40 145.840 MHz, 145.915 MHz
Oscar 11 01 Aug 10:01:58 10:05:06 19° 94° (E) 10:08:14 145.825 FM, Beacon 2401.500 USB
Sapphire 01 Aug 10:07:19 10:12:44 70° 245° (WSW) 10:18:06 437.095 MHz 1200 baud AX-25 AFSK
FUNcube-1 01 Aug 10:34:10 10:36:39 15° 93° (E) 10:39:08 145.950 - 145.970 MHz USB
PCSat 01 Aug 10:40:49 10:45:36 32° 251° (WSW) 10:50:21 145.825 MHz
HO-68 01 Aug 10:43:39 10:50:46 73° 289° (WNW) 10:57:52 435.675 MHz FM
UKube-1 01 Aug 10:56:07 11:00:20 51° 287° (WNW) 11:04:31 145.840 MHz, 145.915 MHz
SO-50 01 Aug 11:08:11 11:11:46 24° 112° (ESE) 11:15:25 436.795 FM
Oscar 11 01 Aug 11:37:27 11:41:20 33° 289° (WNW) 11:45:13 145.825 FM, Beacon 2401.500 USB
FUNcube-1 01 Aug 12:09:17 12:13:11 39° 287° (WNW) 12:17:08 145.950 - 145.970 MHz USB
RS-15 01 Aug 12:28:42 12:39:09 47° 110° (ESE) 12:49:19 29.354 - 29.394 USB, Beacon 29.352 USB
HO-68 01 Aug 12:34:22 12:37:14 13° 307° (NW) 12:40:06 435.675 MHz FM
SO-50 01 Aug 12:48:08 12:52:09 32° 308° (NW) 12:56:16 436.795 FM
UOSAT-12 01 Aug 12:48:22 12:51:32 19° 109° (ESE) 12:54:45 437.025 FM, 437.400 FM
Oscar 19 01 Aug 12:54:02 12:57:48 21° 66° (ENE) 13:01:35 437.125 CW, 437.150 USB
KITSAT 1 01 Aug 12:59:43 13:04:22 16° 34° (NE) 13:08:59 435.175 FM
Oscar 16 01 Aug 13:21:55 13:26:40 41° 71° (ENE) 13:31:28 437.025 USB, Beacon 2401.1428
ITAMSAT 1 01 Aug 13:51:01 13:55:41 34° 69° (ENE) 14:00:22 435.822 SSB
JAS-1B 01 Aug 13:58:14 14:06:33 41° 63° (ENE) 14:15:27 435.800 - 435.900 CW/SSB
Uribyol 2 01 Aug 14:09:00 14:14:03 55° 72° (ENE) 14:19:06 436.500 FM
AO-27 01 Aug 14:10:48 14:15:52 55° 72° (ENE) 14:20:58 436.795 MHz FM
AO-Echo 01 Aug 14:16:59 14:22:14 64° 74° (ENE) 14:27:30 ?
UOSAT-12 01 Aug 14:26:56 14:31:19 44° 306° (NW) 14:35:49 437.025 FM, 437.400 FM
TMSAT-1 01 Aug 14:29:28 14:33:37 24° 66° (ENE) 14:37:46 436.925 FM
Oscar 19 01 Aug 14:32:00 14:36:49 42° 261° (W) 14:41:42 437.125 CW, 437.150 USB
RS-15 01 Aug 14:40:47 14:51:23 49° 311° (NW) 15:01:54 29.354 - 29.394 USB, Beacon 29.352 USB
KITSAT 1 01 Aug 14:53:34 15:01:34 62° 57° (ENE) 15:09:31 435.175 FM
Gurwin Techsat 1B 01 Aug 14:55:10 15:00:21 58° 73° (ENE) 15:05:34 435.225 FM
Oscar 16 01 Aug 15:02:20 15:06:09 21° 266° (W) 15:10:00 437.025 USB, Beacon 2401.1428
AO-7 01 Aug 15:25:40 15:32:49 33° 60° (ENE) 15:39:59 29.400 - 29.500 MHz
ITAMSAT 1 01 Aug 15:30:52 15:35:11 26° 264° (W) 15:39:31 435.822 SSB
Saudisat 1A 01 Aug 15:45:39 15:49:57 50° 56° (NE) 15:54:13 436.775 MHz
JAS-1B 01 Aug 15:47:57 15:56:36 52° 262° (W) 16:06:12 435.800 - 435.900 CW/SSB
Uribyol 2 01 Aug 15:50:40 15:53:49 16° 267° (W) 15:56:59 436.500 FM
AO-27 01 Aug 15:52:29 15:55:41 16° 267° (W) 15:58:54 436.795 MHz FM
AO-Echo 01 Aug 15:58:34 16:01:23 14° 269° (W) 16:04:12 ?
TMSAT-1 01 Aug 16:08:20 16:13:16 40° 262° (W) 16:18:14 436.925 FM
Uosat F 01 Aug 16:17:51 16:22:46 57° 73° (ENE) 16:27:43 435.120 FM
Gurwin Techsat 1B 01 Aug 16:37:32 16:40:40 16° 268° (W) 16:43:49 435.225 FM
JAS-2 01 Aug 16:47:27 16:51:09 15° 59° (ENE) 16:54:44 435.800 - 435.900 CW/SSB, 435.910 FM
KITSAT 1 01 Aug 16:49:55 16:56:22 27° 255° (WSW) 17:02:49 435.175 FM
RS-15 01 Aug 17:00:37 17:07:24 18° 341° (NNW) 17:14:13 29.354 - 29.394 USB, Beacon 29.352 USB
AO-7 01 Aug 17:17:04 17:25:11 55° 258° (WSW) 17:33:22 29.400 - 29.500 MHz
OPAL 01 Aug 17:25:23 17:30:31 87° 105° (ESE) 17:35:41 ?
Saudisat 1A 01 Aug 17:26:40 17:29:05 15° 251° (WSW) 17:31:30 436.775 MHz
Hamsat 01 Aug 17:40:56 17:44:25 26° 70° (ENE) 17:47:56 145.90 MHz
Uosat F 01 Aug 17:59:06 18:01:53 15° 268° (W) 18:04:41 435.120 FM
JAS-2 01 Aug 18:27:26 18:35:12 77° 74° (ENE) 18:42:24 435.800 - 435.900 CW/SSB, 435.910 FM
SO-67 01 Aug 18:32:42 18:33:57 12° 68° (ENE) 18:35:12 435.3500 MHz FM
OPAL 01 Aug 19:07:08 19:08:40 11° 301° (WNW) 19:10:11 ?
Hamsat 01 Aug 19:17:04 19:20:20 22° 265° (W) 19:23:39 145.90 MHz
RS-15 01 Aug 19:19:11 19:26:06 18° 19° (NNE) 19:33:05 29.354 - 29.394 USB, Beacon 29.352 USB
HO-68 01 Aug 19:27:23 19:30:11 13° 53° (NE) 19:32:59 435.675 MHz FM
SO-50 01 Aug 19:41:23 19:44:35 18° 46° (NE) 19:47:48 436.795 FM
STRAND 1 01 Aug 19:55:21 20:00:28 77° 103° (ESE) 20:05:33 ?
SO-67 01 Aug 20:03:28 20:06:40 34° 262° (W) 20:09:53 435.3500 MHz FM
JAS-2 01 Aug 20:15:26 20:20:38 19° 268° (W) 20:25:39 435.800 - 435.900 CW/SSB, 435.910 FM
MaSat-1 01 Aug 20:18:30 20:22:21 44° 108° (ESE) 20:26:48 437.345 MHz
Oscar 11 01 Aug 20:56:44 20:58:40 13° 65° (ENE) 21:00:35 145.825 FM, Beacon 2401.500 USB
HO-68 01 Aug 21:09:31 21:16:38 72° 71° (ENE) 21:23:46 435.675 MHz FM
UOSAT-12 01 Aug 21:19:43 21:22:00 13° 42° (NE) 21:24:16 437.025 FM, 437.400 FM
SO-50 01 Aug 21:20:49 21:25:32 62° 243° (WSW) 21:30:18 436.795 FM
ISS 01 Aug 21:21:17 21:23:52 21° 131° (SE) 21:26:27 145.800 FM
FUNcube-1 01 Aug 21:31:06 21:31:57 11° 64° (ENE) 21:32:48 145.950 - 145.970 MHz USB
RS-15 01 Aug 21:31:26 21:42:05 50° 50° (NE) 21:53:03 29.354 - 29.394 USB, Beacon 29.352 USB
STRAND 1 01 Aug 21:36:58 21:38:58 12° 299° (WNW) 21:40:58 ?
UKube-1 01 Aug 21:49:26 21:53:48 76° 257° (WSW) 21:58:11 145.840 MHz, 145.915 MHz
MaSat-1 01 Aug 21:56:57 21:59:59 18° 309° (NW) 22:03:18 437.345 MHz
Oscar 11 01 Aug 22:30:11 22:34:22 52° 260° (W) 22:38:35 145.825 FM, Beacon 2401.500 USB
ISS 01 Aug 22:57:18 23:00:24 36° 326° (NNW) 23:03:32 145.800 FM
UOSAT-12 01 Aug 22:58:03 23:02:48 87° 240° (WSW) 23:07:28 437.025 FM, 437.400 FM
HO-68 01 Aug 23:00:03 23:04:53 19° 267° (W) 23:09:43 435.675 MHz FM
FUNcube-1 01 Aug 23:03:35 23:07:50 62° 259° (W) 23:12:01 145.950 - 145.970 MHz USB
Sapphire 01 Aug 23:05:42 23:09:29 20° 105° (ESE) 23:13:18 437.095 MHz 1200 baud AX-25 AFSK
PCSat 01 Aug 23:37:07 23:42:10 42° 111° (ESE) 23:47:15 145.825 MHz
RS-15 01 Aug 23:44:00 23:54:21 48° 250° (WSW) 00:05:08 29.354 - 29.394 USB, Beacon 29.352 USB
ISS 02 Aug 00:37:23 00:37:54 10° 345° (NNW) 00:38:26 145.800 FM
Sapphire 02 Aug 00:47:14 00:52:28 51° 301° (WNW) 00:57:46 437.095 MHz 1200 baud AX-25 AFSK
PCSat 02 Aug 01:21:13 01:25:43 26° 308° (NW) 01:30:15 145.825 MHz
Oscar 16 02 Aug 01:36:31 01:39:49 17° 93° (E) 01:43:06 437.025 USB, Beacon 2401.1428
ITAMSAT 1 02 Aug 02:07:19 02:09:52 14° 91° (E) 02:12:24 435.822 SSB
Uribyol 2 02 Aug 02:24:24 02:28:23 22° 95° (E) 02:32:21 436.500 FM
AO-27 02 Aug 02:26:31 02:30:32 23° 95° (E) 02:34:32 436.795 MHz FM
AO-Echo 02 Aug 02:27:21 02:31:16 23° 94° (E) 02:35:03 ?
PANSAT 02 Aug 02:41:45 02:43:29 13° 164° (SSE) 02:45:12 not established
Oscar 19 02 Aug 02:45:04 02:50:16 79° 103° (ESE) 02:55:27 437.125 CW, 437.150 USB
OPAL 02 Aug 03:02:49 03:05:24 14° 60° (ENE) 03:08:00 ?
Gurwin Techsat 1B 02 Aug 03:13:50 03:18:17 27° 95° (E) 03:22:42 435.225 FM
Oscar 16 02 Aug 03:14:25 03:19:26 52° 288° (WNW) 03:24:27 437.025 USB, Beacon 2401.1428
Oscar 10/S400 02 Aug 03:15:22 21:54:35 58° 157° (SSE) 05:40:27 145.825 - 145.975 CW/USB, Beacon 145.810 USB
JAS-1B 02 Aug 03:37:14 03:46:15 67° 101° (E) 03:53:45 435.800 - 435.900 CW/SSB
ITAMSAT 1 02 Aug 03:44:39 03:49:46 63° 287° (WNW) 03:54:51 435.822 SSB
ISS 02 Aug 03:51:18 03:53:47 19° 26° (NNE) 03:56:17 145.800 FM
Uribyol 2 02 Aug 04:03:11 04:07:58 39° 290° (WNW) 04:12:43 436.500 FM
AO-27 02 Aug 04:05:21 04:10:09 39° 290° (WNW) 04:14:55 436.795 MHz FM
AO-Echo 02 Aug 04:05:36 04:10:06 35° 290° (WNW) 04:14:27 ?
PANSAT 02 Aug 04:20:09 04:23:03 20° 177° (S) 04:25:57 not established
TMSAT-1 02 Aug 04:25:39 04:30:58 86° 284° (WNW) 04:36:15 436.925 FM
Oscar 19 02 Aug 04:26:54 04:28:54 12° 299° (WNW) 04:30:56 437.125 CW, 437.150 USB
Uosat F 02 Aug 04:28:25 04:32:04 20° 94° (E) 04:35:41 435.120 FM
AO-40 02 Aug 04:34:12 05:18:02 12° 240° (WSW) 06:15:49 Beacon 2401.320
OPAL 02 Aug 04:38:50 04:43:43 64° 256° (WSW) 04:48:39 ?
MaSat-1 02 Aug 04:40:39 04:42:15 11° 46° (NE) 04:43:50 437.345 MHz
Gurwin Techsat 1B 02 Aug 04:53:29 04:58:15 35° 291° (WNW) 05:02:59 435.225 FM
KITSAT 1 02 Aug 05:19:22 05:27:11 55° 112° (ESE) 05:35:01 435.175 FM
AO-7 02 Aug 05:20:31 05:28:44 60° 103° (ESE) 05:36:52 29.400 - 29.500 MHz
ISS 02 Aug 05:27:26 05:30:45 59° 223° (SW) 05:34:03 145.800 FM
JAS-1B 02 Aug 05:28:39 05:35:49 27° 302° (WNW) 05:42:12 435.800 - 435.900 CW/SSB
STRAND 1 02 Aug 05:35:08 05:36:06 11° 60° (ENE) 05:37:03 ?
Saudisat 1A 02 Aug 05:51:24 05:54:39 20° 111° (ESE) 05:57:55 436.775 MHz
PANSAT 02 Aug 06:00:02 06:02:40 18° 189° (S) 06:05:18 not established
Uosat F 02 Aug 06:06:18 06:11:00 41° 289° (WNW) 06:15:40 435.120 FM
TMSAT-1 02 Aug 06:09:23 06:10:02 10° 301° (WNW) 06:10:40 436.925 FM
